Weather History for Faribault, MN

Change the Weather History Date:

Thursday, October 11, 2012

  Actual Average Record
Temperature  
Mean Temperature 42 °F -  
Max Temperature 53 °F 61 °F 85 °F (1962)
Min Temperature 30 °F 37 °F 20 °F (1987)
Degree Days  
Heating Degree Days 24    
Moisture  
Dew Point 28 °F    
Average Humidity 52    
Maximum Humidity 76    
Minimum Humidity 32    
Precipitation  
Precipitation 0.00 in - - ()
Sea Level Pressure  
Sea Level Pressure 30.09 in    
Wind  
Wind Speed 11 mph (NW)    
Max Wind Speed 20 mph    
Max Gust Speed 28 mph    
Visibility 10 miles    
Events      
Averages and records for this station are not official NWS values.
T = Trace of Precipitation, MM = Missing Value Source: NWS Daily Summary

Daily Weather History Graph

Daily Weather History Graph

Search for Another Location

Airport:

Trip Planner

Search our weather history database for the weather conditions in past years. The results will help you decide how hot, cold, wet, or windy it might be!

Date:

Astronomy

Oct. 11, 2012 Rise Set
Actual Time 7:23 AM CDT 6:35 PM CDT
Civil Twilight 6:54 AM CDT 7:04 PM CDT
Nautical Twilight 6:21 AM CDT 7:37 PM CDT
Astronomical Twilight 5:47 AM CDT 8:11 PM CDT
Moon 2:54 AM CDT (10/11) 4:19 PM CDT (10/11)
Length of Visible Light 12h 09m
Length of Day
11h 11m
Waning Crescent, 18% of the Moon is Illuminated
Oct 11
Waning Crescent
Oct 15
New
Oct 21
First Quarter
Oct 29
Full
Nov 6
Last Quarter

Hourly Weather History & Observations

Time (CDT) Temp. Windchill Dew Point Humidity Pressure Visibility Wind Dir Wind Speed Gust Speed Precip Events Conditions
12:14 AM 48.2 °F - 30.2 °F 50% 29.87 in 10.0 mi South 10.4 mph - N/A   Mostly Cloudy
12:34 AM 50.0 °F - 30.2 °F 47% 29.86 in 10.0 mi South 11.5 mph 18.4 mph N/A   Scattered Clouds
12:54 AM 51.8 °F - 32.0 °F 47% 29.85 in 10.0 mi South 10.4 mph 19.6 mph N/A   Scattered Clouds
1:14 AM 51.8 °F - 32.0 °F 47% 29.85 in 10.0 mi South 12.7 mph 19.6 mph N/A   Mostly Cloudy
1:34 AM 51.8 °F - 32.0 °F 47% 29.85 in 10.0 mi SSW 13.8 mph 21.9 mph N/A   Mostly Cloudy
1:54 AM 51.8 °F - 32.0 °F 47% 29.85 in 10.0 mi SSW 16.1 mph 23.0 mph N/A   Scattered Clouds
2:14 AM 51.8 °F - 32.0 °F 47% 29.84 in 10.0 mi SSW 15.0 mph 21.9 mph N/A   Scattered Clouds
2:34 AM 51.8 °F - 32.0 °F 47% 29.84 in 10.0 mi SSW 15.0 mph 24.2 mph N/A   Mostly Cloudy
2:54 AM 53.6 °F - 32.0 °F 44% 29.83 in 10.0 mi SSW 19.6 mph 27.6 mph N/A   Mostly Cloudy
3:14 AM 51.8 °F - 33.8 °F 50% 29.87 in 10.0 mi WSW 13.8 mph 20.7 mph N/A   Scattered Clouds
3:34 AM 51.8 °F - 33.8 °F 50% 29.87 in 10.0 mi SW 15.0 mph 25.3 mph N/A   Scattered Clouds
3:54 AM 50.0 °F - 33.8 °F 54% 29.87 in 10.0 mi SW 11.5 mph - N/A   Scattered Clouds
4:14 AM 50.0 °F - 33.8 °F 54% 29.87 in 10.0 mi SSW 9.2 mph - N/A   Scattered Clouds
4:34 AM 50.0 °F - 33.8 °F 54% 29.87 in 10.0 mi SSW 5.8 mph - N/A   Scattered Clouds
4:54 AM 50.0 °F - 33.8 °F 54% 29.87 in 10.0 mi SSW 6.9 mph - N/A   Scattered Clouds
5:14 AM 50.0 °F - 33.8 °F 54% 29.88 in 10.0 mi SSW 8.1 mph - N/A   Clear
5:34 AM 51.8 °F - 33.8 °F 50% 29.89 in 10.0 mi SSW 5.8 mph - N/A   Clear
5:54 AM 51.8 °F - 33.8 °F 50% 29.89 in 10.0 mi WSW 6.9 mph - N/A   Clear
6:14 AM 50.0 °F - 33.8 °F 54% 29.90 in 10.0 mi WSW 5.8 mph - N/A   Clear
6:34 AM 51.8 °F - 33.8 °F 50% 29.93 in 10.0 mi West 6.9 mph - N/A   Clear
6:54 AM 51.8 °F - 33.8 °F 50% 29.95 in 10.0 mi NW 10.4 mph 17.3 mph N/A   Clear
7:15 AM 46.4 °F 40.4 °F 32.0 °F 57% 29.97 in 10.0 mi NNW 13.8 mph - N/A   Scattered Clouds
7:34 AM 44.6 °F 40.2 °F 32.0 °F 61% 29.98 in 10.0 mi NNW 8.1 mph - N/A   Scattered Clouds
7:54 AM 42.8 °F 35.8 °F 33.8 °F 70% 30.00 in 10.0 mi NNW 13.8 mph 17.3 mph N/A   Scattered Clouds
8:14 AM 42.8 °F 36.6 °F 33.8 °F 70% 30.02 in 10.0 mi NNW 11.5 mph - N/A   Overcast
8:34 AM 42.8 °F 37.0 °F 33.8 °F 70% 30.04 in 10.0 mi North 10.4 mph - N/A   Scattered Clouds
8:54 AM 42.8 °F 37.0 °F 35.6 °F 76% 30.06 in 10.0 mi North 10.4 mph - N/A   Clear
9:15 AM 42.8 °F 35.8 °F 35.6 °F 76% 30.07 in 10.0 mi NNW 13.8 mph - N/A   Clear
9:34 AM 42.8 °F 35.4 °F 35.6 °F 76% 30.08 in 10.0 mi North 15.0 mph 18.4 mph N/A   Clear
9:54 AM 42.8 °F 35.8 °F 35.6 °F 76% 30.09 in 10.0 mi NNW 13.8 mph 17.3 mph N/A   Scattered Clouds
10:14 AM 44.6 °F 38.1 °F 35.6 °F 71% 30.11 in 10.0 mi NNW 13.8 mph - N/A   Mostly Cloudy
10:34 AM 44.6 °F 38.4 °F 33.8 °F 66% 30.11 in 10.0 mi North 12.7 mph 23.0 mph N/A   Scattered Clouds
10:54 AM 44.6 °F 37.4 °F 30.2 °F 57% 30.13 in 10.0 mi North 16.1 mph 20.7 mph N/A   Mostly Cloudy
11:14 AM 44.6 °F 39.7 °F 32.0 °F 61% 30.14 in 10.0 mi North 9.2 mph 16.1 mph N/A   Overcast
11:34 AM 44.6 °F 37.4 °F 30.2 °F 57% 30.15 in 10.0 mi North 16.1 mph - N/A   Overcast
11:54 AM 44.6 °F 39.2 °F 30.2 °F 57% 30.16 in 10.0 mi NNW 10.4 mph 19.6 mph N/A   Scattered Clouds
12:14 PM 46.4 °F 40.1 °F 30.2 °F 53% 30.15 in 10.0 mi NNW 15.0 mph - N/A   Clear
12:54 PM 46.4 °F 40.4 °F 30.2 °F 53% 30.16 in 10.0 mi NW 13.8 mph 18.4 mph N/A   Scattered Clouds
1:14 PM 48.2 °F - 28.4 °F 46% 30.16 in 10.0 mi NNW 15.0 mph 19.6 mph N/A   Scattered Clouds
1:34 PM 48.2 °F - 28.4 °F 46% 30.16 in 10.0 mi NW 12.7 mph 20.7 mph N/A   Clear
1:55 PM 48.2 °F - 28.4 °F 46% 30.17 in 10.0 mi NNW 10.4 mph - N/A   Clear
2:14 PM 48.2 °F - 26.6 °F 43% 30.18 in 10.0 mi NNW 12.7 mph 19.6 mph N/A   Clear
2:34 PM 48.2 °F - 24.8 °F 40% 30.18 in 10.0 mi North 12.7 mph - N/A   Clear
2:54 PM 48.2 °F - 24.8 °F 40% 30.19 in 10.0 mi NW 10.4 mph 18.4 mph N/A   Clear
3:14 PM 48.2 °F - 24.8 °F 40% 30.19 in 10.0 mi NNW 9.2 mph - N/A   Clear
3:34 PM 48.2 °F - 21.2 °F 34% 30.20 in 10.0 mi NNW 17.3 mph - N/A   Clear
3:54 PM 48.2 °F - 19.4 °F 32% 30.21 in 10.0 mi NNW 10.4 mph - N/A   Clear
4:14 PM 46.4 °F 40.7 °F 19.4 °F 34% 30.21 in 10.0 mi NNW 12.7 mph 17.3 mph N/A   Clear
4:34 PM 46.4 °F 41.1 °F 21.2 °F 37% 30.22 in 10.0 mi NNW 11.5 mph 16.1 mph N/A   Clear
4:54 PM 46.4 °F 40.7 °F 19.4 °F 34% 30.22 in 10.0 mi NNW 12.7 mph 18.4 mph N/A   Clear
5:14 PM 46.4 °F 42.4 °F 19.4 °F 34% 30.22 in 10.0 mi NW 8.1 mph - N/A   Clear
5:34 PM 46.4 °F 42.9 °F 19.4 °F 34% 30.23 in 10.0 mi NW 6.9 mph - N/A   Clear
5:54 PM 44.6 °F 40.2 °F 17.6 °F 34% 30.23 in 10.0 mi NNW 8.1 mph - N/A   Clear
6:34 PM 42.8 °F 39.3 °F 17.6 °F 36% 30.25 in 10.0 mi NW 5.8 mph - N/A   Clear
6:54 PM 39.2 °F 35.9 °F 19.4 °F 45% 30.26 in 10.0 mi WNW 4.6 mph - N/A   Clear
7:14 PM 39.2 °F 35.9 °F 17.6 °F 42% 30.27 in 10.0 mi WNW 4.6 mph - N/A   Clear
7:34 PM 37.4 °F 32.1 °F 19.4 °F 48% 30.28 in 10.0 mi WNW 6.9 mph - N/A   Clear
7:54 PM 37.4 °F 32.1 °F 19.4 °F 48% 30.29 in 10.0 mi NNW 6.9 mph - N/A   Clear
8:14 PM 37.4 °F 32.8 °F 19.4 °F 48% 30.30 in 10.0 mi NNW 5.8 mph - N/A   Clear
8:31 PM 37.4 °F 34.9 °F 19.4 °F 48% 30.31 in 10.0 mi NNW 3.5 mph - N/A   Clear
8:54 PM 35.6 °F 31.7 °F 19.4 °F 52% 30.31 in 10.0 mi NNW 4.6 mph - N/A   Clear
9:14 PM 35.6 °F 30.7 °F 19.4 °F 52% 30.32 in 10.0 mi NNW 5.8 mph - N/A   Clear
9:54 PM 33.8 °F - 19.4 °F 56% 30.33 in 10.0 mi Calm Calm - N/A   Clear
10:09 PM 30.2 °F - 19.4 °F 64% 30.34 in 10.0 mi Calm Calm - N/A   Clear
10:54 PM 30.2 °F 26.7 °F 19.4 °F 64% 30.35 in 10.0 mi WNW 3.5 mph - N/A   Clear
11:14 PM 32.0 °F 28.7 °F 21.2 °F 64% 30.37 in 10.0 mi WNW 3.5 mph - N/A   Clear
11:34 PM 30.2 °F 26.7 °F 21.2 °F 69% 30.37 in 10.0 mi West 3.5 mph - N/A   Clear
11:54 PM 30.2 °F 25.4 °F 21.2 °F 69% 30.38 in 10.0 mi WNW 4.6 mph - N/A   Clear